Regional Weather Roundup
Issued by NWS

Home | Current Version | Previous Version | Text Only | Print | Product List | Glossary Off
Versions: 1 2 3 4 5 6 7 8 9 10 11 12 13 14 15 16 17 18 19 20 21 22 23 24 25 26 27 28 29 30 31 32 33 34 35 36 37 38 39 40 41 42 43 44 45 46 47 48 49 50

000
ASUS45 KTFX 062110
RWRMT
MONTANA REGIONAL WEATHER ROUNDUP
NATIONAL WEATHER SERVICE GREAT FALLS MT
300 PM MDT MON JUL 06 2015

NOTE: "FAIR" INDICATES FEW OR NO CLOUDS BELOW 12000 FEET WITH NO
SIGNIFICANT WEATHER AND/OR OBSTRUCTIONS TO VISIBILITY.

MTZ001>007-043-062200-
WEST OF THE DIVIDE

CITY           SKY/WX    TMP DP  RH WIND       PRES   REMARKS
KALISPELL      CLEAR     77  35  21 CALM      30.11F
MISSOULA       SUNNY     81  44  27 N15G23    30.09F
BUTTE          MOSUNNY   76  47  35 SE9       30.16F
MULLAN PASS    SUNNY     69  39  33 VRB3      30.25F
DEER LODGE       N/A     75  48  38 N12       30.17F
EUREKA           N/A     81  39  22 SE6       30.06F
HAMILTON         N/A     77  55  47 NW10      30.07F
LIBBY            N/A     81  45  28 NW7       30.07F
RONAN            N/A     75  45  34 SW3       30.17F
THOMPSON FALLS   N/A     85  28  12 NE8       30.09F
$$

MTZ008-052>055-062200-
SOUTHWEST MONTANA

CITY           SKY/WX    TMP DP  RH WIND       PRES   REMARKS
BOZEMAN        SUNNY     75  50  41 S5        30.16F
DILLON         SUNNY     77  53  43 NE8       30.14F
W YELLOWSTONE  MOSUNNY   72  45  37 SW10      30.23F
THREE FORKS      N/A     73  60  63 NE1       30.13F
TWIN BRIDGES     N/A     75  51  42 SW5       30.11F
$$

MTZ009-010-012-014-046-048-049-054-062200-
EAST SLOPES AND CENTRAL MONTANA

CITY           SKY/WX    TMP DP  RH WIND       PRES   REMARKS
CUT BANK       SUNNY     70  42  36 VRB7      30.15F
GREAT FALLS    MOSUNNY   71  49  45 S7        30.15F
MALMSTROM AFB  MOSUNNY   70  50  49 SE5       30.15F
HELENA         SUNNY     74  52  46 E6        30.13F
CONRAD           N/A     69  55  60 SE2       30.17F
$$

MTZ011-013-016-021-045-047-050-051-062200-
NORTH CENTRAL MONTANA

CITY           SKY/WX    TMP DP  RH WIND       PRES   REMARKS
HAVRE          SUNNY     72  43  35 VRB5      30.15F
LEWISTOWN      PTSUNNY   69  46  43 CALM      30.19F
CHINOOK          N/A     72  45  37 SE3       30.16F
FORT BENTON      N/A     72  48  43 E5        30.15F
$$

MTZ017>020-022>027-061-062-062200-
NORTHEAST MONTANA

CITY           SKY/WX    TMP DP  RH WIND       PRES   REMARKS
GLASGOW        MOSUNNY   73  42  32 SW8       30.17F
JORDAN           N/A     73  46  38 VRB5      30.18F
SIDNEY         PTSUNNY   72  46  40 N10       30.18S
WOLF POINT     PTSUNNY   73  48  41 W7        30.18F HAZE
MALTA            N/A     73  45  36 SE1       30.12F
PLENTYWOOD       N/A     68  46  45 NW5       30.18F
POPLAR           N/A     72  46  40 CALM      30.18F
SCOBEY           N/A     71  43  36 W3        30.16F
$$

MTZ028>42-056>058-062200-
SOUTHCENTRAL AND SOUTHEAST MONTANA

CITY           SKY/WX    TMP DP  RH WIND       PRES   REMARKS
BAKER          PTSUNNY   72  48  42 W14       30.21F
BILLINGS       MOSUNNY   70  47  43 NE12      30.20F
LIVINGSTON     SUNNY     73  49  42 E8        30.18F
MILES CITY     PTSUNNY   72  49  44 SW6       30.18F
FORSYTH          N/A     70  48  46 E5        30.19F
LAUREL           N/A     72  47  40 NE2       30.17F
ROUNDUP          N/A     69  44  40 SE3       30.10F
$$

REGIONAL REPORTS...DAKOTAS

CITY           SKY/WX    TMP DP  RH WIND       PRES   REMARKS
WILLISTON      MOSUNNY   70  48  45 N8        30.19F
MINOT          PTSUNNY   65  47  52 N10       30.16F
DICKINSON      PTSUNNY   72  49  44 NW14G20   30.16F
BEACH          FAIR      68  46  45 NW9       30.20S
CROSBY         MOCLDY    66  45  45 NE5       30.20S
BISMARCK       PTSUNNY   71  51  49 NW13      30.15S HAZE
GRAND FORKS    PTSUNNY   66  51  58 N15       30.10S
FARGO          MOSUNNY   68  49  50 N16G25    30.09S
BUFFALO SD       N/A     70  48  45 N7G17     30.15F
RAPID CITY     PTSUNNY   70  54  56 N7        30.22F
$$

REGIONAL REPORTS...WYOMING/IDAHO/WASHINGTON

CITY           SKY/WX    TMP DP  RH WIND       PRES   REMARKS
GILLETTE       CLOUDY    66  52  60 NE6       30.25F
SHERIDAN       CLOUDY    60  52  74 CALM      30.26S
BUFFALO WY     CLOUDY    58  53  84 SE5       30.29S HAZE
CODY           PTSUNNY   66  48  52 S7        30.23F
YELLOWSTONE LA   N/A     65  44  46 VRB6      30.33F
IDAHO FALLS    LGT RAIN  64  59  83 E8        30.14F
SALMON         SUNNY     82  54  36 SW3       30.00F
BOISE          MOSUNNY   91  51  25 W10       30.02F
SPOKANE        PTSUNNY   88  41  19 NE9       30.02F
$$

REGIONAL REPORTS...ALBERTA

CITY           SKY/WX    TMP DP  RH WIND       PRES   REMARKS
EDMONTON       MOSUNNY   72  43  35 SE7       30.05F
CALGARY        CLOUDY    72  48  43 SE15      30.08F
LETHBRIDGE     PTSUNNY   73  48  40 S14G23    30.09F
MEDICINE HAT   MOSUNNY   73  45  35 SW9G21    30.12F
CARDSTON         N/A     73  50  43 SE5         N/A
MILK RIVER       N/A     72  45  37 S10G17      N/A
$$

REGIONAL REPORTS...SASKATCHEWAN

CITY           SKY/WX    TMP DP  RH WIND       PRES   REMARKS
SWIFT CURRENT  MOSUNNY   70  45  40 S6        30.16F
REGINA         MOSUNNY   68  41  37 VRB5      30.18F
SASKATOON      MOSUNNY   72  45  37 W8        30.16F
CYPRESS HILLS    N/A     63  43  48 S7          N/A
VAL MARIE        N/A     72  43  35 S3          N/A
$$


USA.gov is the U.S. government's official web portal to all federal, state and local government web resources and services.